Location: Unspecified
(48.2082°N, 0.0000°E)
Time: 13:47:52
(UTC+00:00)

A-11 Canister half - Pass Details

Date: 23 June 2019
Orbit: 1514 x 1685 km, 47.2° (Epoch: 22 July)

Event Time Altitude Azimuth Distance (km) Brightness Sun altitude
Rises 09:00:55 0° 202° (SSW) 4,914 11.6 46.6°
Reaches altitude 10° 09:04:34 10° 193° (SSW) 3,914 11.3 47.2°
Maximum altitude 09:12:54 31° 136° (SE) 2,574 11.6 48.5°
Drops below altitude 10° 09:21:02 10° 79° (E) 3,825 11.8 49.7°
Sets 09:24:31 0° 70° (ENE) 4,787 12.0 50.3°
